When you browse on this site, cookies collect data to enhance your experience and personalize the content and advertising you see.
Visit our Privacy Policy to learn more. By continuing to use the site, you agree to this use of cookies and data.
  • în România
  • Lista ţărilor
  • Pe 7 zile
  • Temperatura apei
  • Meteo pe hartă
  • Widget-uri
  • user-avatar
    Intrare

    Meteo pe oră la Naftalan

    Astăzi, 9 Decembrie, Luni

    Timp Temperatura Precipitaţii Vânt Presiune Umiditate
    00:00 +7°C° 0.5 mm 3 m/s 762 mmHg 83%
    01:00 +6°C° 0.7 mm 4 m/s 762 mmHg 85%
    02:00 +6°C° 0.7 mm 4 m/s 762 mmHg 87%
    03:00 +6°C° 0 mm 4 m/s 762 mmHg 89%
    04:00 +6°C° 0.6 mm 4 m/s 762 mmHg 89%
    05:00 +6°C° 0.6 mm 5 m/s 763 mmHg 89%
    06:00 +7°C° 0.6 mm 5 m/s 763 mmHg 89%
    07:00 +7°C° 0.4 mm 4 m/s 764 mmHg 89%
    08:00 +8°C° 0.4 mm 3 m/s 764 mmHg 89%
    09:00 +8°C° 0.4 mm 2 m/s 765 mmHg 89%
    10:00 +8°C° 0.5 mm 3 m/s 765 mmHg 89%
    11:00 +9°C° 0.5 mm 3 m/s 765 mmHg 88%
    12:00 +9°C° 0.5 mm 3 m/s 765 mmHg 88%
    13:00 +9°C° 0.1 mm 3 m/s 765 mmHg 84%
    14:00 +8°C° 0.1 mm 4 m/s 765 mmHg 80%
    15:00 +8°C° 0.1 mm 4 m/s 765 mmHg 77%
    16:00 +8°C° 0 mm 4 m/s 765 mmHg 78%
    17:00 +9°C° 0 mm 3 m/s 766 mmHg 80%
    18:00 +9°C° 0 mm 3 m/s 766 mmHg 82%
    19:00 +9°C° 0 mm 3 m/s 766 mmHg 82%
    20:00 +9°C° 0 mm 3 m/s 767 mmHg 82%
    21:00 +8°C° 0 mm 4 m/s 767 mmHg 82%
    22:00 +9°C° 0 mm 3 m/s 767 mmHg 80%
    23:00 +9°C° 0 mm 3 m/s 767 mmHg 79%

    Mâine, 10 Decembrie, Marţi

    Timp Temperatura Precipitaţii Vânt Presiune Umiditate
    00:00 +9°C° 0 mm 3 m/s 767 mmHg 77%
    01:00 +9°C° 0 mm 3 m/s 767 mmHg 78%
    02:00 +10°C° 0 mm 3 m/s 767 mmHg 79%
    03:00 +10°C° 0 mm 3 m/s 767 mmHg 79%
    04:00 +10°C° 0 mm 3 m/s 767 mmHg 80%
    05:00 +10°C° 0 mm 3 m/s 767 mmHg 81%
    06:00 +10°C° 0 mm 3 m/s 768 mmHg 81%
    07:00 +10°C° 0 mm 3 m/s 768 mmHg 80%
    08:00 +11°C° 0 mm 3 m/s 768 mmHg 79%
    09:00 +11°C° 0 mm 3 m/s 768 mmHg 78%
    10:00 +11°C° 0.1 mm 3 m/s 768 mmHg 77%
    11:00 +12°C° 0.1 mm 3 m/s 768 mmHg 75%
    12:00 +12°C° 0.1 mm 3 m/s 767 mmHg 74%
    13:00 +12°C° 0.1 mm 4 m/s 767 mmHg 75%
    14:00 +12°C° 0.1 mm 4 m/s 767 mmHg 77%
    15:00 +12°C° 0.1 mm 4 m/s 766 mmHg 78%
    16:00 +12°C° 0.2 mm 4 m/s 766 mmHg 80%
    17:00 +12°C° 0.2 mm 4 m/s 767 mmHg 81%
    18:00 +11°C° 0.2 mm 4 m/s 767 mmHg 82%
    19:00 +11°C° 0.2 mm 4 m/s 767 mmHg 82%
    20:00 +11°C° 0.2 mm 4 m/s 767 mmHg 83%
    21:00 +11°C° 0.2 mm 4 m/s 767 mmHg 83%
    22:00 +11°C° 0.2 mm 4 m/s 766 mmHg 83%
    23:00 +11°C° 0.2 mm 4 m/s 766 mmHg 84%

    Poimâine, 11 Decembrie, Miercuri

    Timp Temperatura Precipitaţii Vânt Presiune Umiditate
    00:00 +11°C° 0.2 mm 4 m/s 766 mmHg 85%
    01:00 +10°C° 0.3 mm 4 m/s 766 mmHg 86%
    02:00 +10°C° 0.3 mm 4 m/s 766 mmHg 87%
    03:00 +8°C° 0.3 mm 4 m/s 766 mmHg 87%
    04:00 +8°C° 0 mm 4 m/s 766 mmHg 86%
    05:00 +8°C° 0 mm 4 m/s 766 mmHg 85%
    06:00 +8°C° 0 mm 4 m/s 766 mmHg 83%
    07:00 +8°C° 0 mm 4 m/s 766 mmHg 80%
    08:00 +8°C° 0 mm 4 m/s 766 mmHg 77%
    09:00 +10°C° 0 mm 4 m/s 766 mmHg 74%
    10:00 +10°C° 0 mm 4 m/s 766 mmHg 71%
    11:00 +11°C° 0 mm 4 m/s 766 mmHg 69%
    12:00 +12°C° 0 mm 4 m/s 765 mmHg 66%
    13:00 +11°C° 0 mm 4 m/s 765 mmHg 68%
    14:00 +11°C° 0 mm 4 m/s 765 mmHg 69%
    15:00 +11°C° 0 mm 3 m/s 765 mmHg 70%
    16:00 +11°C° 0 mm 3 m/s 766 mmHg 74%
    17:00 +10°C° 0 mm 3 m/s 766 mmHg 78%
    18:00 +10°C° 0 mm 3 m/s 766 mmHg 82%
    19:00 +9°C° 0 mm 3 m/s 766 mmHg 82%
    20:00 +9°C° 0 mm 3 m/s 767 mmHg 82%
    21:00 +9°C° 0 mm 3 m/s 767 mmHg 82%
    22:00 +9°C° 0 mm 3 m/s 767 mmHg 81%
    23:00 +9°C° 0 mm 2 m/s 767 mmHg 79%

    12 Decembrie, Joi

    Timp Temperatura Precipitaţii Vânt Presiune Umiditate
    00:00 +9°C° 0 mm 2 m/s 767 mmHg 77%
    01:00 +9°C° 0 mm 2 m/s 766 mmHg 77%
    02:00 +9°C° 0 mm 2 m/s 766 mmHg 76%
    03:00 +9°C° 0 mm 2 m/s 766 mmHg 76%
    04:00 +9°C° 0 mm 2 m/s 766 mmHg 75%
    05:00 +9°C° 0 mm 2 m/s 766 mmHg 75%
    06:00 +9°C° 0 mm 2 m/s 766 mmHg 75%
    07:00 +10°C° 0 mm 2 m/s 767 mmHg 74%
    08:00 +10°C° 0 mm 2 m/s 767 mmHg 73%
    09:00 +10°C° 0 mm 3 m/s 767 mmHg 71%
    10:00 +10°C° 0 mm 3 m/s 766 mmHg 71%
    11:00 +11°C° 0 mm 3 m/s 766 mmHg 70%
    12:00 +11°C° 0 mm 3 m/s 765 mmHg 69%
    13:00 +11°C° 0 mm 3 m/s 765 mmHg 70%
    14:00 +11°C° 0 mm 3 m/s 765 mmHg 71%
    15:00 +11°C° 0 mm 3 m/s 764 mmHg 71%
    16:00 +11°C° 0 mm 3 m/s 764 mmHg 73%
    17:00 +10°C° 0 mm 3 m/s 764 mmHg 75%
    18:00 +10°C° 0 mm 3 m/s 764 mmHg 77%
    19:00 +10°C° 0 mm 3 m/s 764 mmHg 76%
    20:00 +10°C° 0 mm 3 m/s 764 mmHg 76%
    21:00 +10°C° 0 mm 3 m/s 764 mmHg 75%
    22:00 +10°C° 0 mm 3 m/s 764 mmHg 75%
    23:00 +10°C° 0 mm 3 m/s 763 mmHg 76%

    13 Decembrie, Vineri

    Timp Temperatura Precipitaţii Vânt Presiune Umiditate
    00:00 +10°C° 0 mm 3 m/s 763 mmHg 76%
    01:00 +10°C° 0 mm 3 m/s 763 mmHg 76%
    02:00 +10°C° 0 mm 3 m/s 763 mmHg 76%
    03:00 +10°C° 0 mm 3 m/s 762 mmHg 76%
    04:00 +10°C° 0 mm 3 m/s 762 mmHg 76%
    05:00 +10°C° 0 mm 3 m/s 763 mmHg 76%
    06:00 +10°C° 0 mm 3 m/s 763 mmHg 76%
    07:00 +10°C° 0 mm 3 m/s 763 mmHg 77%
    08:00 +10°C° 0 mm 4 m/s 763 mmHg 78%
    09:00 +10°C° 0 mm 4 m/s 763 mmHg 79%
    10:00 +10°C° 0.1 mm 4 m/s 763 mmHg 78%
    11:00 +10°C° 0.1 mm 4 m/s 763 mmHg 77%
    12:00 +10°C° 0.1 mm 4 m/s 762 mmHg 76%
    13:00 +10°C° 0.1 mm 4 m/s 762 mmHg 77%
    14:00 +10°C° 0.1 mm 4 m/s 762 mmHg 77%
    15:00 +10°C° 0.1 mm 4 m/s 762 mmHg 77%
    16:00 +10°C° 0 mm 4 m/s 763 mmHg 78%
    17:00 +10°C° 0 mm 4 m/s 763 mmHg 79%
    18:00 +10°C° 0 mm 4 m/s 763 mmHg 79%
    19:00 +10°C° 0.1 mm 4 m/s 763 mmHg 80%
    20:00 +10°C° 0.1 mm 4 m/s 763 mmHg 80%
    21:00 +10°C° 0.1 mm 4 m/s 764 mmHg 80%
    22:00 +10°C° 0 mm 4 m/s 764 mmHg 80%
    23:00 +10°C° 0 mm 4 m/s 764 mmHg 79%

    14 Decembrie, Sâmbătă

    Timp Temperatura Precipitaţii Vânt Presiune Umiditate
    00:00 +10°C° 0 mm 4 m/s 764 mmHg 79%
    01:00 +8°C° 0.1 mm 4 m/s 764 mmHg 79%
    02:00 +8°C° 0.1 mm 4 m/s 764 mmHg 79%
    03:00 +8°C° 0.1 mm 4 m/s 763 mmHg 79%
    04:00 +8°C° 0.1 mm 4 m/s 764 mmHg 79%
    05:00 +8°C° 0.1 mm 4 m/s 764 mmHg 79%
    06:00 +8°C° 0.1 mm 4 m/s 764 mmHg 79%
    07:00 +8°C° 0.2 mm 4 m/s 764 mmHg 80%
    08:00 +8°C° 0.2 mm 4 m/s 764 mmHg 81%
    09:00 +8°C° 0.2 mm 4 m/s 764 mmHg 82%
    10:00 +8°C° 0.3 mm 4 m/s 764 mmHg 82%
    11:00 +8°C° 0.3 mm 4 m/s 764 mmHg 82%
    12:00 +8°C° 0.3 mm 4 m/s 764 mmHg 81%
    13:00 +8°C° 0.2 mm 4 m/s 763 mmHg 79%
    14:00 +10°C° 0.2 mm 4 m/s 763 mmHg 77%
    15:00 +10°C° 0.2 mm 4 m/s 763 mmHg 75%
    16:00 +10°C° 0.1 mm 3 m/s 763 mmHg 77%
    17:00 +9°C° 0.1 mm 3 m/s 763 mmHg 78%
    18:00 +9°C° 0.1 mm 3 m/s 763 mmHg 80%
    19:00 +9°C° 0 mm 3 m/s 763 mmHg 79%
    20:00 +8°C° 0 mm 4 m/s 764 mmHg 79%
    21:00 +8°C° 0 mm 4 m/s 764 mmHg 78%
    22:00 +8°C° 0 mm 4 m/s 764 mmHg 78%
    23:00 +8°C° 0 mm 4 m/s 764 mmHg 78%
    Arată mai mult